Weather History for Kaltag, AK

Change the Weather History Date:

Saturday, February 16, 2013

  Actual Average (PAGA) Record (PAGA)
Temperature  
Mean Temperature -22 °F -  
Max Temperature -11 °F -1 °F 36 °F (2006)
Min Temperature -32 °F -19 °F -45 °F (1957)
Degree Days  
Heating Degree Days 86    
Moisture  
Dew Point -28 °F    
Average Humidity 75    
Maximum Humidity 81    
Minimum Humidity 69    
Precipitation  
Precipitation 0.00 in - - ()
Sea Level Pressure  
Sea Level Pressure 30.18 in    
Wind  
Wind Speed 2 mph (SW)    
Max Wind Speed 5 mph    
Max Gust Speed -    
Visibility 9 miles    
Events      
Averages and records for this station are not official NWS values.
T = Trace of Precipitation, MM = Missing Value Source: NWS Daily Summary

Daily Weather History Graph

Daily Weather History Graph

Search for Another Location

Airport:

Trip Planner

Search our weather history database for the weather conditions in past years. The results will help you decide how hot, cold, wet, or windy it might be!

Date:

Astronomy

Feb. 16, 2013 Rise Set
Actual Time 9:26 AM AKST 6:13 PM AKST
Civil Twilight 8:34 AM AKST 7:04 PM AKST
Nautical Twilight 7:38 AM AKST 8:00 PM AKST
Astronomical Twilight 6:43 AM AKST 8:56 PM AKST
Moon 10:04 AM AKST (2/16) 3:00 AM AKST (2/16)
Length of Visible Light 10h 29m
Length of Day
8h 47m
Waxing Crescent, 41% of the Moon is Illuminated
Feb 16
Waxing Crescent
Feb 17
First Quarter
Feb 25
Full
Mar 4
Last Quarter
Mar 11
New

Hourly Weather History & Observations

Time (AKST) Temp. Windchill Dew Point Humidity Pressure Visibility Wind Dir Wind Speed Gust Speed Precip Events Conditions
12:53 AM -18.0 °F - -23.1 °F 78% 30.14 in 7.0 mi Calm Calm - N/A   Overcast
1:53 AM -17.0 °F - -22.0 °F 78% 30.16 in 8.0 mi Calm Calm - N/A   Overcast
3:53 AM -20.9 °F -34.3 °F -27.0 °F 73% 30.17 in 10.0 mi SW 4.6 mph - N/A   Scattered Clouds
4:53 AM -24.0 °F -35.2 °F -29.0 °F 77% 30.17 in 10.0 mi SW 3.5 mph - N/A   Clear
5:53 AM -29.0 °F -41.0 °F -34.1 °F 77% 30.18 in 10.0 mi SW 3.5 mph - N/A   Clear
6:53 AM -29.0 °F -41.0 °F -36.0 °F 69% 30.19 in 10.0 mi SW 3.5 mph - N/A   Clear
7:53 AM -27.9 °F -42.5 °F -35.0 °F 69% 30.18 in 10.0 mi SW 4.6 mph - N/A   Clear
8:53 AM -29.0 °F -43.8 °F -35.0 °F 73% 30.18 in 10.0 mi SW 4.6 mph - N/A   Clear
9:53 AM -29.0 °F -41.0 °F -35.0 °F 73% 30.18 in 10.0 mi SW 3.5 mph - N/A   Clear
10:53 AM -27.9 °F - -34.1 °F 73% 30.20 in 10.0 mi Calm Calm - N/A   Clear
11:53 AM -24.0 °F - -29.0 °F 77% 30.21 in 10.0 mi Calm Calm - N/A   Clear
12:53 PM -18.9 °F - -24.0 °F 78% 30.21 in 10.0 mi Calm Calm - N/A   Clear
1:53 PM -17.0 °F - -22.0 °F 78% 30.21 in 5.0 mi Calm Calm - N/A   Haze
2:53 PM -15.0 °F - -20.0 °F 78% 30.20 in 10.0 mi Calm Calm - N/A   Clear
3:53 PM -11.9 °F - -18.9 °F 71% 30.19 in 8.0 mi Calm Calm - N/A   Clear
4:53 PM -13.0 °F -22.7 °F -18.9 °F 75% 30.18 in 6.0 mi NE 3.5 mph - N/A   Haze
5:53 PM -15.0 °F - -20.9 °F 75% 30.17 in 10.0 mi Calm Calm - N/A   Clear
6:53 PM -26.0 °F - -29.9 °F 81% 30.18 in 10.0 mi Calm Calm - N/A   Clear
7:53 PM -27.0 °F - -33.0 °F 73% 30.19 in 10.0 mi Calm Calm - N/A   Clear
8:53 PM -29.0 °F -41.0 °F -36.0 °F 69% 30.19 in 10.0 mi SW 3.5 mph - N/A   Clear
9:53 PM -32.1 °F - - N/A% 30.19 in 10.0 mi Calm Calm - N/A   Clear
10:53 PM -31.0 °F -46.1 °F - N/A% 30.19 in 10.0 mi SW 4.6 mph - N/A   Clear
11:53 PM -31.0 °F -46.1 °F - N/A% 30.19 in 10.0 mi SW 4.6 mph - N/A   Clear